Other Public Products
Issued by NWS Charleston, SC

Current Version | Previous Version | Graphics & Text | Print | Product List | Glossary On
Versions: 1 2 3 4 5 6 7 8 9 10 11 12 13 14 15 16 17 18 19 20 21 22 23 24 25 26 27 28 29 30 31 32 33 34 35 36 37 38 39 40 41 42 43 44 45 46 47 48 49 50
000 FPUS82 KCHS 241612 OPUCHS TEST...KCHS/KSAV Gateway Observations...TEST National Weather Service Charleston SC 1200 PM EDT THU MAY 24 2018 NOTE: "fair" indicates few or no clouds below 12,000 feet with no significant weather and/or obstructions to visibility. SCZ050-WAZ558-NCZ071-TXZ119-213-PAZ071-DCZ001-FLZ074-172-MI076- NYZ176-178-MAZ016-IL014-TNZ027-NJZ106-GAZ044-MD014-241700- ...Gateway Observations for Charleston International... CITY SKY/WX TMP DP RH WIND PRES REMARKS Chas Airport LGT RAIN 78 72 81 VRB5 30.11S Seattle CLOUDY 55 51 86 SW7 30.06R Charlotte CLOUDY 75 70 84 E10 30.18S Dallas DFW PTSUNNY 82 68 62 S9 30.07F Dallas Love MOSUNNY 84 69 60 SE9 30.08F Philladelphia FAIR 79 42 26 N14 30.16F Wash National FAIR 81 50 33 N8 30.19S Baltimore FAIR 80 47 31 NE9 30.18S Miami CLOUDY 83 74 74 E12 30.08S Detroit FAIR 79 50 36 S5 30.23F Newark FAIR 79 39 23 N7 30.14S Laguardia FAIR 78 35 21 N8 30.13S J F K FAIR 77 37 23 N9G20 30.14S Boston Logan FAIR 58 52 80 E14 30.12S Ft. Lauderdale PTSUNNY 84 76 76 E14G23 30.07F HX 93 Chicago O`Hare FAIR 80 55 42 S10 30.17F Chicago Midway FAIR 80 55 42 S8 30.18F Houston Bush FAIR 83 72 69 VRB5 30.07S Houston Hobby FAIR 84 74 71 VRB7 30.06S HX 91 Nashville FAIR 84 64 50 N9 30.13F Atlanta PTSUNNY 80 68 66 NE9 30.14R $$ GAZ044-118-TXZ119-213-NCZ071-DCZ001-MDZ014-506-PAZ021-071-NJZ106- NYZ176-178-MAZ106-OHZ011-021-055-MIZ076-KYZ091-ILZ014-INZ047- MNZ060-ONZ431-241700- ...Gateway Observations for Savannah International... CITY SKY/WX TMP DP RH WIND PRES REMARKS Savannah Arpt PTSUNNY 84 72 67 CALM 30.10F Atlanta PTSUNNY 80 68 66 NE9 30.14R Charlotte CLOUDY 75 70 84 E10 30.18S Dallas DFW PTSUNNY 82 68 62 S9 30.07F Houston Bush FAIR 83 72 69 VRB5 30.07S Wash National FAIR 81 50 33 N8 30.19S Wash Dulles FAIR 78 50 37 NE7 30.20S Baltimore FAIR 80 47 31 NE9 30.18S Philadelphia FAIR 79 42 26 N14 30.16F Newark FAIR 79 39 23 N7 30.14S Laguardia FAIR 78 35 21 N8 30.13S J F K FAIR 77 37 23 N9G20 30.14S Boston FAIR 58 52 80 E14 30.12S Pittsburg FAIR 75 52 44 SE6 30.25R Akron FAIR 76 51 41 NE3 30.26R Cleveland FAIR 77 51 40 VRB3 30.26S Cincinnati FAIR 75 57 53 E9 30.20F Columbus FAIR 75 53 46 MISG 30.22F Detroit FAIR 79 50 36 S5 30.23F Chicago O`Hare FAIR 80 55 42 S10 30.17F Minneapolis PTSUNNY 84 67 56 SW12 30.00F Indianapolis FAIR 77 54 44 E6 30.20F Toronto Canada MOSUNNY 73 50 43 S8 30.16F $$

USA.gov is the U.S. government's official web portal to all federal, state and local government web resources and services.